Tracking 29892 objects as of 21-Nov-2024
HD Live streaming from Space Station
objects crossing your sky now

H-2 R/B

Track H-2 R/B now!
10-day predictions


NORAD ID: 22980
Int'l Code: 1994-007C
Perigee: 277.7 km
Apogee: 27,094.4 km
Inclination: 28.5 °
Period: 471.2 minutes
Semi major axis: 20057 km
RCS: 24.1323 m2 (large)
Launch date: February 3, 1994
Source: Japan (JPN)
Launch site: TANEGASHIMA SPACE CENTER (TNSTA)

Note: This is a ROCKET BODY
Your satellite tracking list
Your tracking list is empty




NASA's NSSDC Master Catalog

Two Line Element Set (TLE):
1 22980U 94007C   24325.64044243  .00012484  00000-0  32626-2 0  9994
2 22980  28.5147  77.4321 6685083 178.4448 185.9190  3.05634297309156
Source of the keplerian elements: AFSPC